Weather in Tucha

Belarus     52°57′46″N   26°32′43″E
temp.,
°C
wind,
m/s
gust,
m/s
humid.,
%
clouds,
%
prec.,
mm/h
press.,
hPa
HPBL,
m
9 march, tue
tue900:00−9nnw349222 0.0 101861
03:00−10nnw339211 0.0 102036
06:00−11nnw339565 0.0 102045
09:00−11nnw349441 0.0 102275
12:00−7nnw248823 0.0 1023303
15:00−5nnw238052 0.0 1023556
18:00−7wnw118581 0.0 102321
21:00−9ssw118481 0.0 102421
10 march, wed
wed1000:00−9sse1184100 0.0 102521
03:00−10s238697 0.0 102521
06:00−10sse228833 0.0 102421
09:00−9se228717 0.0 102522
12:00−5se22790 0.0 1025263
15:00−2s13680 0.0 1024744
18:00−5ne23790 0.0 102423
21:00−7e34830 0.0 102530
11 march, thu
thu1100:00−8ese33843 0.0 102524
03:00−8se23811 0.0 102621
06:00−8ese238227 0.0 102521
09:00−7se348913 0.0 102672
12:00−2sse47770 0.0 1025864
15:000sse577711 0.0 10241051
18:00−2se497971 0.0 1022228
21:00−4se5127782 0.0 1022308
12 march, fri
fri1200:00−4sse61478100 0.0 1020503
03:00−3sse81576100 0.0 1018663
06:00−3sse81673100 0.0 1015709
09:00−3sse101792100 0.3 1012773
12:00−1s101596100 3.8 1011915
15:000s814100100 5.3 1010629
18:00+2sw511100100 2.4 1010334
21:00+1wsw389496 2.5 1012176
13 march, sat
sat1300:000sw369583 0.0 1013170
03:00−2sw369481 0.0 101493
06:00−2ssw369393 0.0 1014133
09:000ssw5109296 0.0 1013271
12:00+2s51010033 0.0 1012290
15:00+3s5119946 0.0 1011316
18:00+3sw51398100 1.0 1010504
21:00+1ssw4898100 3.3 1011252